Overview Statistics Trail Chart Weather Telemetry Raw packets
 

This is the latest recevied weather packets stored in our database for station/object CW79215. If no packets are shown the sender has not sent any weather packets the latest 10 day(s).

<< 30 31 32 33 34 35 36 >>
Time Temp. Humidity Pressure Rain* Wind** Luminosity Snow
1787989825 22.22° C 48% 1027.6 hPa - - - -
1787988925 22.22° C 48% 1027.7 hPa - - - -
1787988025 22.22° C 50% 1027.6 hPa - - - -
1787987125 23.33° C 48% 1027.6 hPa - - - -
1787986225 21.67° C 51% 1027.6 hPa - - - -
1787985325 20° C 56% 1027.7 hPa - - - -
1787984425 17.22° C 64% 1027.8 hPa - - - -
1787983525 16.67° C 66% 1027.9 hPa - - - -
1787982625 16.11° C 69% 1028 hPa - - - -
1787981725 14.44° C 75% 1028 hPa - - - -
1787980825 14.44° C 77% 1028 hPa - - - -
1787979925 14.44° C 74% 1027.9 hPa - - - -
1787979025 14.44° C 76% 1027.9 hPa - - - -
1787978124 14.44° C 75% 1027.8 hPa - - - -
1787977224 14.44° C 75% 1027.8 hPa - - - -
1787976324 14.44° C 74% 1027.7 hPa - - - -
1787975424 15° C 73% 1027.6 hPa - - - -
1787974524 15° C 72% 1027.7 hPa - - - -
1787973624 15.56° C 71% 1027.8 hPa - - - -
1787972724 15.56° C 72% 1027.8 hPa - - - -
1787971823 16.11° C 69% 1027.6 hPa - - - -
1787970924 15.56° C 71% 1027.6 hPa - - - -
1787970024 15.56° C 70% 1027.6 hPa - - - -
1787969124 15.56° C 71% 1027.7 hPa - - - -
1787968224 15.56° C 70% 1027.6 hPa - - - -

* Rain since midnight (hover to see other rain measurements)
** Current wind speed in m/s (hover to see current wind gust speed)